Adama, Poland

2:07 PM CEST on August 17, 2017 (GMT +0200)
Adama

Weather History for 12566 - June, 2013

Change the Weather History Date:

Friday, June 28, 2013

  Actual Average Record
Temperature  
Mean Temperature 57 °F -  
Max Temperature 61 °F 73 °F - ()
Min Temperature 53 °F 54 °F - ()
Degree Days  
Heating Degree Days 8    
Growing Degree Days 7 (Base 50)    
Moisture  
Dew Point 54 °F    
Average Humidity 89    
Maximum Humidity 100    
Minimum Humidity 74    
Precipitation  
Precipitation 0.08 in 0.11 in - ()
Sea Level Pressure  
Sea Level Pressure 30.11 in    
Wind  
Wind Speed 4 mph ()    
Max Wind Speed 9 mph    
Max Gust Speed -    
Visibility 6.4 miles    
Events Rain    
T = Trace of Precipitation, MM = Missing Value Source: Averaged Metar Reports

Daily Weather History Graph

Daily Weather History Graph

Search for Another Location

Airport or City:

Trip Planner

Search our weather history database for the weather conditions in past years. The results will help you decide how hot, cold, wet, or windy it might be!

Date:

Astronomy

Jun. 28, 2013 Rise Set
Actual Time 4:33 AM CEST 8:54 PM CEST
Civil Twilight 3:49 AM CEST 9:38 PM CEST
Nautical Twilight 2:43 AM CEST 10:44 PM CEST
Astronomical Twilight 1:16 AM CEST 12:11 AM CEST
Moon 11:32 PM CEST (6/28) 10:58 AM CEST (6/28)
Length of Visible Light 17h 49m
Length of Day
16h 20m
Waning Gibbous, 69% of the Moon is Illuminated
Jun 28
Waning Gibbous
Jun 30
Last Quarter
Jul 8
New
Jul 16
First Quarter
Jul 22
Full

Hourly Weather History & Observations

Time (CEST) Temp. Dew Point Humidity Pressure Visibility Wind Dir Wind Speed Gust Speed Precip Events Conditions
12:00 AM 53.6 °F 50.0 °F 88% 30.18 in 6.2 mi Variable 2.3 mph - N/A   Mostly Cloudy
12:30 AM 55.4 °F 50.0 °F 82% 30.18 in 6.2 mi Variable 2.3 mph - N/A   Mostly Cloudy
1:00 AM 55.4 °F 50.0 °F 82% 30.18 in 6.2 mi Variable 2.3 mph - N/A   Mostly Cloudy
1:30 AM 55.4 °F 50.0 °F 82% 30.18 in 6.2 mi Variable 2.3 mph - N/A   Mostly Cloudy
2:00 AM 55 °F 51 °F 81% 30.19 in 9 mi East 6.7 mph - - Rain Light Rain
2:00 AM 55.4 °F 51.8 °F 88% 30.18 in 6.2 mi ESE 5.8 mph - N/A Rain Light Rain
2:30 AM 53.6 °F 51.8 °F 94% 30.18 in 6.2 mi Calm Calm - N/A Rain Light Rain
3:00 AM 53.6 °F 51.8 °F 94% 30.15 in 6.2 mi Calm Calm - N/A Rain Light Rain
3:30 AM 53.6 °F 51.8 °F 94% 30.15 in 6.2 mi NNE 1.2 mph - N/A Rain Light Rain
4:00 AM 53.6 °F 51.8 °F 94% 30.15 in 6.2 mi NE 3.5 mph - N/A Rain Light Rain
4:30 AM 53.6 °F 51.8 °F 94% 30.12 in 5.0 mi NNE 3.5 mph - N/A Rain Light Rain
5:00 AM 54 °F 53 °F 93% 30.15 in 5 mi NNE 2.2 mph - - Rain Light Rain
5:00 AM 53.6 °F 51.8 °F 94% 30.12 in 5.0 mi NNE 5.8 mph - N/A Rain Light Rain
5:30 AM 53.6 °F 51.8 °F 94% 30.12 in 5.0 mi NNE 5.8 mph - N/A Rain Light Rain
6:00 AM 53.6 °F 51.8 °F 94% 30.12 in 5.0 mi NNE 4.6 mph - N/A Rain Light Rain
6:30 AM 53.6 °F 51.8 °F 94% 30.12 in 5.0 mi NNE 5.8 mph - N/A   Mostly Cloudy
7:00 AM 53.6 °F 51.8 °F 94% 30.12 in 6.2 mi NNE 5.8 mph - N/A   Mostly Cloudy
7:30 AM 55.4 °F 53.6 °F 94% 30.12 in 6.2 mi NNE 8.1 mph - N/A   Mostly Cloudy
8:00 AM 55 °F 54 °F 93% 30.13 in 6 mi NNE 6.7 mph - -   Partly Cloudy
8:00 AM 55.4 °F 53.6 °F 94% 30.12 in 6.2 mi NE 5.8 mph - N/A   Mostly Cloudy
8:30 AM 55.4 °F 53.6 °F 94% 30.12 in 6.2 mi NE 8.1 mph - N/A   Mostly Cloudy
9:00 AM 55.4 °F 53.6 °F 94% 30.12 in 6.2 mi NE 8.1 mph - N/A Rain Light Rain
9:30 AM 55.4 °F 55.4 °F 100% 30.12 in 5.0 mi NE 8.1 mph - N/A Rain Light Rain
10:00 AM 55.4 °F 53.6 °F 94% 30.12 in 3.7 mi NE 4.6 mph - N/A Rain Light Rain
10:30 AM 57.2 °F 55.4 °F 94% 30.12 in 5.0 mi NE 6.9 mph - N/A Rain Light Rain
11:00 AM 57 °F 55 °F 91% 30.13 in 6 mi North 6.7 mph - - Rain Light Rain
11:00 AM 57.2 °F 55.4 °F 94% 30.12 in 6.2 mi NNE 6.9 mph - N/A   Mostly Cloudy
11:30 AM 57.2 °F 53.6 °F 88% 30.12 in 6.2 mi NE 5.8 mph - N/A   Mostly Cloudy
12:00 PM 57.2 °F 55.4 °F 94% 30.12 in 6.2 mi NE 5.8 mph - N/A Rain Light Rain
12:30 PM 59.0 °F 55.4 °F 88% 30.09 in 6.2 mi NNE 6.9 mph - N/A   Mostly Cloudy
1:00 PM 59.0 °F 55.4 °F 88% 30.09 in 6.2 mi ENE 6.9 mph - N/A   Mostly Cloudy
1:30 PM 60.8 °F 55.4 °F 82% 30.09 in 6.2 mi East 5.8 mph - N/A   Scattered Clouds
2:00 PM 60 °F 55 °F 77% 30.12 in 25 mi NE 8.9 mph - - Rain Light Rain Showers
2:00 PM 60.8 °F 53.6 °F 77% 30.09 in 6.2 mi NE 9.2 mph - N/A   Scattered Clouds
2:30 PM 59.0 °F 55.4 °F 88% 30.09 in 6.2 mi NE 9.2 mph - N/A   Scattered Clouds
3:00 PM 60.8 °F 55.4 °F 82% 30.09 in 6.2 mi East 6.9 mph - N/A Rain Light Rain Showers
3:30 PM 60.8 °F 55.4 °F 82% 30.09 in 6.2 mi ENE 5.8 mph - N/A Rain Light Rain Showers
4:00 PM 60.8 °F 55.4 °F 82% 30.09 in 6.2 mi East 6.9 mph - N/A Rain Light Rain Showers
4:30 PM 60.8 °F 55.4 °F 82% 30.09 in 6.2 mi East 6.9 mph - N/A   Partly Cloudy
5:00 PM 61 °F 55 °F 74% 30.09 in 12 mi NNE 2.2 mph - - Rain Light Rain Showers
5:00 PM 60.8 °F 55.4 °F 82% 30.06 in 6.2 mi Variable 2.3 mph - N/A   Mostly Cloudy
5:30 PM 60.8 °F 55.4 °F 82% 30.06 in 6.2 mi Variable 2.3 mph - N/A   Mostly Cloudy
6:00 PM 59.0 °F 55.4 °F 88% 30.06 in 6.2 mi NNE 5.8 mph - N/A   Mostly Cloudy
6:30 PM 59.0 °F 55.4 °F 88% 30.06 in 6.2 mi Variable 2.3 mph - N/A   Mostly Cloudy
7:00 PM 59.0 °F 53.6 °F 82% 30.06 in 6.2 mi Variable 2.3 mph - N/A   Scattered Clouds
7:30 PM 59.0 °F 53.6 °F 82% 30.06 in 6.2 mi Variable 2.3 mph - N/A   Scattered Clouds
8:00 PM 59 °F 54 °F 79% 30.08 in 19 mi North 2.2 mph - -   Partly Cloudy
8:00 PM 59.0 °F 53.6 °F 82% 30.06 in 6.2 mi Calm Calm - N/A   Mostly Cloudy
8:30 PM 59.0 °F 55.4 °F 88% 30.06 in 6.2 mi Calm Calm - N/A   Mostly Cloudy
9:00 PM 57.2 °F 55.4 °F 94% 30.09 in 6.2 mi Calm Calm - N/A   Mostly Cloudy
9:30 PM 59.0 °F 55.4 °F 88% 30.09 in 6.2 mi East 4.6 mph - N/A   Mostly Cloudy
10:00 PM 57.2 °F 55.4 °F 94% 30.09 in 6.2 mi East 4.6 mph - N/A Rain Light Rain Showers
10:30 PM 57.2 °F 55.4 °F 94% 30.09 in 6.2 mi Calm Calm - N/A Rain Light Rain Showers
11:00 PM 57 °F 56 °F 97% 30.10 in 6 mi WNW 2.2 mph - - Rain Light Rain Showers
11:00 PM 57.2 °F 55.4 °F 94% 30.09 in 6.2 mi Calm Calm - N/A Rain Light Rain Showers
11:30 PM 57.2 °F 55.4 °F 94% 30.09 in 6.2 mi Calm Calm - N/A   Mostly Cloudy